Location: City of Moscow
(46.7306°N, 116.9989°W)
Time: 15:22:53
(UTC+00:00)

CUBEBUG 2 - Pass Details

Date: 28 April 2026
Orbit: 546 x 628 km, 97.9° (Epoch: 15 May)

Event Time Altitude Azimuth Distance (km) Brightness Sun altitude
Rises 10:33:46 0° 10° (N) 2,815 ? -18.3°
Reaches altitude 10° 10:35:58 10° 7° (N) 1,897 ? -18.1°
Maximum altitude 10:40:01 62° 287° (WNW) 644 ? -17.6°
Enters shadow 10:41:21 38° 224° (SW) 866 ? -17.4°
